Location: Staunton
(38.1490°N, 79.0720°W)
Time: 08:13:20
(UTC-04:00)

ISS - Pass Details

Date: 24 May 2018
Orbit: 402 x 407 km, 51.6° (Epoch: 25 May)

Event Time Altitude Azimuth Distance (km) Brightness Sun altitude
Rises 01:32:47 0° 320° (NW) 2,317 0.6 -30.9°
Reaches altitude 10° 01:36:15 10° 359° (N) 1,456 -0.1 -30.8°
Maximum altitude 01:37:12 11° 16° (NNE) 1,399 -0.3 -30.8°
Enters shadow 01:37:42 11° 25° (NNE) 1,414 -0.3 -30.8°
